Monroe, MI

11:54 PM EST on February 07, 2016 (GMT -0500)
Custer

Weather History for KTTF - March, 2012

Change the Weather History Date:

Saturday, March 17, 2012

  Actual Average Record
Temperature  
Mean Temperature 60 °F -  
Max Temperature 73 °F 44 °F 78 °F (1945)
Min Temperature 48 °F 25 °F 7 °F (1941)
Degree Days  
Heating Degree Days 4    
Growing Degree Days 10 (Base 50)    
Moisture  
Dew Point 54 °F    
Average Humidity 88    
Maximum Humidity 100    
Minimum Humidity 60    
Precipitation  
Precipitation 0.00 in - - ()
Sea Level Pressure  
Sea Level Pressure 30.15 in    
Wind  
Wind Speed 3 mph (SE)    
Max Wind Speed 10 mph    
Max Gust Speed -    
Visibility 5 miles    
Events Fog    
Averages and records for this station are not official NWS values.
T = Trace of Precipitation, MM = Missing Value Source: NWS Daily Summary

Daily Weather History Graph

Daily Weather History Graph

Search for Another Location

Airport or City:

Trip Planner

Search our weather history database for the weather conditions in past years. The results will help you decide how hot, cold, wet, or windy it might be!

Date:

Astronomy

Mar. 17, 2012 Rise Set
Actual Time 7:41 AM EDT 7:43 PM EDT
Civil Twilight 7:13 AM EDT 8:10 PM EDT
Nautical Twilight 6:41 AM EDT 8:43 PM EDT
Astronomical Twilight 6:08 AM EDT 9:16 PM EDT
Moon 4:46 AM EDT (3/17) 3:01 PM EDT (3/17)
Length of Visible Light 12h 57m
Length of Day
12h 01m
Waning Crescent, 23% of the Moon is Illuminated
Mar 17
Waning Crescent
Mar 22
New
Mar 30
First Quarter
Apr 6
Full
Apr 13
Last Quarter

Hourly Weather History & Observations

Time (EDT) Temp. Dew Point Humidity Pressure Visibility Wind Dir Wind Speed Gust Speed Precip Events Conditions
12:14 AM 53.6 °F 53.6 °F 100% 30.12 in 1.5 mi East 3.5 mph - N/A   Mist
12:34 AM 53.6 °F 53.6 °F 100% 30.13 in 2.5 mi Calm Calm - N/A   Clear
12:54 AM 53.6 °F 53.6 °F 100% 30.13 in 2.5 mi Calm Calm - N/A   Clear
1:15 AM 51.8 °F 51.8 °F 100% 30.13 in 2.0 mi East 3.5 mph - N/A   Clear
1:35 AM 51.8 °F 51.8 °F 100% 30.13 in 2.0 mi East 3.5 mph - N/A   Clear
1:55 AM 51.8 °F 51.8 °F 100% 30.13 in 0.2 mi East 3.5 mph - N/A Fog Fog
2:15 AM 51.8 °F 51.8 °F 100% 30.13 in 0.2 mi East 3.5 mph - N/A Fog Fog
2:35 AM 50.0 °F 50.0 °F 100% 30.13 in 0.2 mi ESE 3.5 mph - N/A Fog Fog
2:50 AM 50.0 °F 50.0 °F 100% 30.14 in 0.2 mi ESE 3.5 mph - N/A Fog Fog
3:30 AM 50.0 °F 50.0 °F 100% 30.14 in 0.2 mi Calm Calm - N/A Fog Fog
3:51 AM 50.0 °F 50.0 °F 100% 30.14 in 0.2 mi Calm Calm - N/A Fog Fog
4:11 AM 48.2 °F 48.2 °F 100% 30.14 in 0.2 mi Calm Calm - N/A Fog Fog
4:31 AM 50.0 °F 50.0 °F 100% 30.14 in 1.0 mi Calm Calm - N/A   Mostly Cloudy
4:51 AM 50.0 °F 50.0 °F 100% 30.14 in 1.2 mi Calm Calm - N/A   Mist
5:11 AM 48.2 °F 48.2 °F 100% 30.15 in 1.5 mi Calm Calm - N/A   Mist
5:31 AM 50.0 °F 50.0 °F 100% 30.15 in 1.8 mi Calm Calm - N/A   Mist
5:51 AM 48.2 °F 48.2 °F 100% 30.15 in 1.2 mi Calm Calm - N/A   Mist
6:12 AM 48.2 °F 48.2 °F 100% 30.16 in 2.0 mi Calm Calm - N/A   Clear
6:32 AM 48.2 °F 48.2 °F 100% 30.16 in 1.8 mi Calm Calm - N/A   Mist
6:52 AM 50.0 °F 50.0 °F 100% 30.17 in 2.5 mi Calm Calm - N/A   Clear
7:12 AM 48.2 °F 48.2 °F 100% 30.17 in 0.2 mi Calm Calm - N/A Fog Fog
7:32 AM 48.2 °F 48.2 °F 100% 30.18 in 0.2 mi Calm Calm - N/A Fog Fog
7:52 AM 48.2 °F 48.2 °F 100% 30.18 in 0.2 mi Calm Calm - N/A Fog Fog
8:12 AM 50.0 °F 50.0 °F 100% 30.18 in 0.2 mi Calm Calm - N/A Fog Fog
8:33 AM 53.6 °F 53.6 °F 100% 30.18 in 1.0 mi Calm Calm - N/A   Mist
8:53 AM 55.4 °F 55.4 °F 100% 30.18 in 1.8 mi Calm Calm - N/A   Mist
9:13 AM 57.2 °F 57.2 °F 100% 30.18 in 2.5 mi SSE 3.5 mph - N/A   Clear
9:33 AM 57.2 °F 57.2 °F 100% 30.18 in 3.0 mi SSE 3.5 mph - N/A   Clear
9:53 AM 59.0 °F 59.0 °F 100% 30.18 in 4.0 mi SSE 4.6 mph - N/A   Clear
10:13 AM 60.8 °F 60.8 °F 100% 30.18 in 5.0 mi South 5.8 mph - N/A   Clear
10:33 AM 62.6 °F 62.6 °F 100% 30.18 in 7.0 mi South 4.6 mph - N/A   Clear
10:53 AM 64.4 °F 62.6 °F 94% 30.19 in 7.0 mi SSE 4.6 mph - N/A   Clear
11:14 AM 64.4 °F 62.6 °F 94% 30.19 in 10.0 mi South 4.6 mph - N/A   Clear
11:34 AM 66.2 °F 59.0 °F 78% 30.19 in 10.0 mi South 5.8 mph - N/A   Clear
11:54 AM 68.0 °F 57.2 °F 68% 30.19 in 10.0 mi SSE 4.6 mph - N/A   Clear
12:34 PM 69.8 °F 57.2 °F 64% 30.18 in 10.0 mi SSW 4.6 mph - N/A   Clear
12:54 PM 71.6 °F 59.0 °F 64% 30.18 in 10.0 mi South 10.4 mph - N/A   Clear
1:34 PM 71.6 °F 59.0 °F 64% 30.17 in 10.0 mi SSE 6.9 mph - N/A   Clear
1:54 PM 71.6 °F 59.0 °F 64% 30.16 in 10.0 mi SSE 8.1 mph - N/A   Clear
2:15 PM 71.6 °F 59.0 °F 64% 30.15 in 10.0 mi SSE 9.2 mph - N/A   Clear
2:35 PM 73.4 °F 59.0 °F 61% 30.14 in 10.0 mi South 8.1 mph - N/A   Clear
2:55 PM 73.4 °F 59.0 °F 61% 30.13 in 10.0 mi SSE 6.9 mph - N/A   Clear
3:15 PM 73.4 °F 59.0 °F 61% 30.13 in 10.0 mi SE 6.9 mph - N/A   Clear
3:35 PM 71.6 °F 57.2 °F 60% 30.13 in 10.0 mi East 9.2 mph - N/A   Clear
3:50 PM 71.6 °F 59.0 °F 64% 30.12 in 10.0 mi ESE 8.1 mph - N/A   Clear
4:10 PM 71.6 °F 59.0 °F 64% 30.12 in 10.0 mi East 9.2 mph - N/A   Clear
4:31 PM 71.6 °F 59.0 °F 64% 30.11 in 10.0 mi ESE 8.1 mph - N/A   Clear
4:51 PM 71.6 °F 57.2 °F 60% 30.11 in 10.0 mi East 8.1 mph - N/A   Clear
5:11 PM 69.8 °F 57.2 °F 64% 30.10 in 10.0 mi ESE 9.2 mph - N/A   Clear
5:31 PM 69.8 °F 57.2 °F 64% 30.10 in 10.0 mi ESE 8.1 mph - N/A   Clear
5:51 PM 69.8 °F 57.2 °F 64% 30.10 in 10.0 mi ESE 8.1 mph - N/A   Clear
6:11 PM 69.8 °F 57.2 °F 64% 30.09 in 10.0 mi East 5.8 mph - N/A   Clear
6:31 PM 68.0 °F 57.2 °F 68% 30.09 in 10.0 mi ESE 5.8 mph - N/A   Clear
6:52 PM 66.2 °F 55.4 °F 68% 30.09 in 10.0 mi ESE 8.1 mph - N/A   Clear
7:12 PM 64.4 °F 55.4 °F 73% 30.09 in 10.0 mi ESE 8.1 mph - N/A   Clear
7:32 PM 62.6 °F 55.4 °F 77% 30.10 in 10.0 mi ESE 9.2 mph - N/A   Clear
7:52 PM 60.8 °F 55.4 °F 82% 30.10 in 10.0 mi ESE 8.1 mph - N/A   Clear
8:12 PM 57.2 °F 53.6 °F 88% 30.10 in 10.0 mi ESE 6.9 mph - N/A   Clear
8:32 PM 57.2 °F 55.4 °F 94% 30.10 in 10.0 mi ESE 9.2 mph - N/A   Clear
8:52 PM 55.4 °F 55.4 °F 100% 30.11 in 10.0 mi ESE 5.8 mph - N/A   Scattered Clouds
9:12 PM 55.4 °F 55.4 °F 100% 30.11 in 10.0 mi ESE 5.8 mph - N/A   Mostly Cloudy
9:33 PM 55.4 °F 53.6 °F 94% 30.11 in 10.0 mi ESE 5.8 mph - N/A   Overcast
9:53 PM 53.6 °F 53.6 °F 100% 30.11 in 10.0 mi ESE 8.1 mph - N/A   Scattered Clouds
10:13 PM 53.6 °F 53.6 °F 100% 30.11 in 7.0 mi ESE 5.8 mph - N/A   Clear
10:33 PM 51.8 °F 51.8 °F 100% 30.12 in 7.0 mi SE 3.5 mph - N/A   Clear
10:53 PM 51.8 °F 51.8 °F 100% 30.11 in 7.0 mi Calm Calm - N/A   Clear
11:13 PM 51.8 °F 51.8 °F 100% 30.11 in 10.0 mi East 5.8 mph - N/A   Clear
11:33 PM 51.8 °F 51.8 °F 100% 30.11 in 7.0 mi ESE 6.9 mph - N/A   Clear
11:54 PM 51.8 °F 51.8 °F 100% 30.12 in 7.0 mi ESE 9.2 mph - N/A   Scattered Clouds